Location: Quebec
(46.8000°N, 71.2500°W)
Time: 07:14:56
(UTC-04:00)

Vanguard 1 Rocket - Visible Passes

Search period start: 18 October 2017 00:00
Search period end: 28 October 2017 00:00
Orbit: 655 x 4222 km, 34.3° (Epoch: 17 October)

Date Brightness Start Highest point End Pass type
(mag) Time Alt. Az. Time Alt. Az. Time Alt. Az.
21 Oct 10.4 05:49:43 10° S 05:53:05 12° SSE 05:55:54 10° SE visible
23 Oct 10.2 05:49:59 10° SSW 05:56:15 18° SSE 06:00:47 10° SE visible
24 Oct 10.6 04:39:07 10° S 04:44:56 15° SSE 04:49:23 10° SE visible
25 Oct 11.0 03:30:44 10° SSE 03:33:16 11° SSE 03:35:33 10° SE visible
25 Oct 9.9 05:51:13 10° SSW 05:59:25 23° SSE 06:04:48 10° ESE visible
26 Oct 10.3 04:39:14 10° SSW 04:48:03 20° SSE 04:54:03 10° ESE visible
27 Oct 10.7 03:30:33 13° S 03:36:20 16° SSE 03:42:24 10° ESE visible
27 Oct 9.7 05:52:51 10° SW 06:02:33 28° S 06:08:30 10° ESE visible
